Zurück zum Katalog

OBJECT D

AktivSSO
NORAD 100132·UNKNOWN·🇨🇳 China

Gestartet Jul 22, 2026 von Yellow Sea Launch Area

Loading…

Nächste Überflüge (nächste 24 Stunden)

TLE

AktuellSource: Space-Track

Epoche: Sep 14, 2026, 04:24 UTC

1 A0132U 26168D   26257.18338570  .00006940  00000-0  42909-3 0  9992
2 A0132  97.5350 338.0056 0020907 143.3059 216.9607 15.09975622  8167

Verfolge OBJECT D in Echtzeit mit AllMySat

Download on the App Store